Weather History for Fort Campbell, KY

Change the Weather History Date:

Tuesday, February 11, 2014

  Actual Average Record
Temperature  
Mean Temperature 18 °F -  
Max Temperature 27 °F 48 °F 78 °F (1999)
Min Temperature 9 °F 30 °F -9 °F (2011)
Degree Days  
Heating Degree Days 47    
Moisture  
Dew Point 11 °F    
Average Humidity 78    
Maximum Humidity 97    
Minimum Humidity 58    
Precipitation  
Precipitation 0.00 in - - ()
Sea Level Pressure  
Sea Level Pressure 30.41 in    
Wind  
Wind Speed 10 mph (NNE)    
Max Wind Speed 14 mph    
Max Gust Speed -    
Visibility 10 miles    
Events      
Averages and records for this station are not official NWS values.
T = Trace of Precipitation, MM = Missing Value Source: NWS Daily Summary

Daily Weather History Graph

Daily Weather History Graph

Search for Another Location

Airport:

Trip Planner

Search our weather history database for the weather conditions in past years. The results will help you decide how hot, cold, wet, or windy it might be!

Date:

Astronomy

Feb. 11, 2014 Rise Set
Actual Time 6:42 AM CST 5:26 PM CST
Civil Twilight 6:15 AM CST 5:53 PM CST
Nautical Twilight 5:45 AM CST 6:23 PM CST
Astronomical Twilight 5:15 AM CST 6:53 PM CST
Moon 2:48 PM CST (2/11) 4:17 AM CST (2/11)
Length of Visible Light 11h 37m
Length of Day
10h 43m
Waxing Gibbous, 91% of the Moon is Illuminated
Feb 11
Waxing Gibbous
Feb 14
Full
Feb 22
Last Quarter
Mar 1
New
Mar 8
First Quarter

Hourly Weather History & Observations

Time (CST) Temp. Windchill Dew Point Humidity Pressure Visibility Wind Dir Wind Speed Gust Speed Precip Events Conditions
12:58 AM 12.0 °F -2.7 °F 6.6 °F 79% 30.40 in 10.0 mi North 12.7 mph - N/A   Clear
1:58 AM 11.3 °F -1.3 °F 5.7 °F 78% 30.43 in 10.0 mi North 9.2 mph - N/A   Clear
2:58 AM 10.8 °F -1.1 °F 5.4 °F 79% 30.44 in 10.0 mi North 8.1 mph - N/A   Clear
3:58 AM 9.5 °F -3.5 °F 4.6 °F 81% 30.44 in 10.0 mi NNE 9.2 mph - N/A   Clear
4:58 AM 9.0 °F -3.2 °F 4.6 °F 83% 30.43 in 10.0 mi NNE 8.1 mph - N/A   Clear
5:58 AM 9.0 °F -7.3 °F 4.5 °F 82% 30.45 in 10.0 mi North 13.8 mph - N/A   Clear
6:58 AM 9.5 °F -5.2 °F 4.1 °F 79% 30.46 in 10.0 mi NNE 11.5 mph - N/A   Overcast
7:58 AM 11.5 °F -2.7 °F 5.4 °F 76% 30.48 in 10.0 mi NNE 11.5 mph - N/A   Mostly Cloudy
8:58 AM 13.3 °F 2.0 °F 7.2 °F 77% 30.49 in 10.0 mi North 8.1 mph - N/A   Overcast
9:58 AM 15.3 °F 2.0 °F 8.8 °F 76% 30.46 in 10.0 mi NNE 11.5 mph - N/A   Overcast
10:58 AM 19.2 °F 8.4 °F 11.1 °F 71% 30.47 in 10.0 mi NNE 9.2 mph - N/A   Scattered Clouds
11:58 AM 23.9 °F 12.9 °F 12.4 °F 62% 30.43 in 10.0 mi NE 11.5 mph - N/A   Clear
12:58 PM 25.7 °F 16.4 °F 12.9 °F 58% 30.42 in 10.0 mi NNE 9.2 mph - N/A   Partly Cloudy
1:58 PM 27.0 °F 16.7 °F 15.4 °F 62% 30.38 in 10.0 mi NNE 11.5 mph - N/A   Clear
2:58 PM 27.0 °F 18.0 °F 15.8 °F 63% 30.38 in 10.0 mi North 9.2 mph - N/A   Clear
3:58 PM 26.1 °F 15.6 °F 16.7 °F 68% 30.38 in 10.0 mi NNE 11.5 mph - N/A   Clear
4:58 PM 24.1 °F 13.1 °F 16.9 °F 74% 30.37 in 10.0 mi NNE 11.5 mph - N/A   Clear
5:58 PM 21.9 °F 10.4 °F 16.7 °F 80% 30.35 in 10.0 mi NNE 11.5 mph - N/A   Clear
6:58 PM 20.7 °F 10.2 °F 16.9 °F 85% 30.37 in 10.0 mi NNE 9.2 mph - N/A   Clear
7:58 PM 19.9 °F 10.1 °F 16.5 °F 87% 30.36 in 10.0 mi NNE 8.1 mph - N/A   Clear
8:58 PM 19.9 °F 9.3 °F 16.7 °F 87% 30.36 in 10.0 mi NNE 9.2 mph - N/A   Clear
9:58 PM 18.7 °F 9.5 °F 16.9 °F 93% 30.36 in 10.0 mi NNE 6.9 mph - N/A   Clear
10:58 PM 17.8 °F 10.9 °F 16.9 °F 96% 30.33 in 10.0 mi NE 4.6 mph - N/A   Clear
11:58 PM 17.6 °F 7.3 °F 16.9 °F 97% 30.30 in 10.0 mi NNE 8.1 mph - N/A   Clear